Location: Monfort
(47.1967°N, 0.2115°W)
Time: 11:42:11
(UTC+00:00)

SKYMED 2 - Pass Details

Date: 24 October 2020
Orbit: 621 x 623 km, 97.9° (Epoch: 28 November)

Event Time Altitude Azimuth Distance (km) Brightness Sun altitude
Rises 17:55:22 0° 16° (NNE) 2,916 6.8 -10.6°
Reaches altitude 10° 17:57:36 10° 21° (NNE) 2,004 5.9 -11.0°
Maximum altitude 18:01:55 58° 101° (E) 731 3.6 -11.7°
Drops below altitude 10° 18:06:10 10° 180° (S) 1,986 6.2 -12.4°
Sets 18:08:23 0° 185° (S) 2,887 7.1 -12.8°
